Location: Bon Acre
(42.6442°N, 73.5758°W)
Time: 15:30:20
(UTC+00:00)

Cosmos 1606 Rocket - Pass Details

Date: 14 December 2025
Orbit: 596 x 625 km, 82.5° (Epoch: 16 January)

Event Time Altitude Azimuth Distance (km) Brightness Sun altitude
Rises 21:50:00 0° 178° (S) 2,880 7.3 -5.4°
Reaches altitude 10° 21:52:14 10° 175° (S) 1,983 6.5 -5.8°
Maximum altitude 21:56:34 62° 95° (E) 707 3.6 -6.5°
Drops below altitude 10° 22:00:57 10° 15° (NNE) 2,007 5.8 -7.2°
Sets 22:03:13 0° 12° (NNE) 2,919 6.7 -7.6°
